Tracking 30923 objects as of 1-Jul-2025
HD Live streaming from Space Station
objects crossing your sky now

DUCHIFAT-3

Track DUCHIFAT-3 now!
10-day predictions
DUCHIFAT-3 is classified as:


NORAD ID: 44854
Int'l Code: 2019-089C
Perigee: 426.9 km
Apogee: 432.1 km
Inclination: 36.9 °
Period: 93.0 minutes
Semi major axis: 6800 km
RCS: Unknown
Launch date: December 11, 2019
Source: (TBD)
Launch site: SRIHARIKOTA (SRI)

Uplink (MHz): 145.970
Downlink (MHz): 436.400
Beacon (MHz):
Mode: FM/APRS/9k6BPSK
Call sign: 4H4HSL-1
Status: Inactive

Your satellite tracking list
Your tracking list is empty




NASA's NSSDC Master Catalog

Two Line Element Set (TLE):
1 44854U 19089C   25181.46600802  .00028969  00000-0  53753-3 0  9995
2 44854  36.9412 222.2370 0003853 146.3167 213.7836 15.48066496306252
Source of the keplerian elements: AMSAT